[Iaude] MPEC V220: 2023 VT7 [a=1.31,e=0.24,i=17.9,H=24.0]
    mpec at marsden.cfa.harvard.edu 
    mpec at marsden.cfa.harvard.edu
       
    Sun Nov 12 16:28:03 EST 2023
    
    
  
M.P.E.C. 2023-V220                            Issued 2023 November 12, 21:26 UT
     The Minor Planet Electronic Circulars contain information on unusual
         minor planets, routine data on comets and natural satellites,
         and occasional editorial announcements.  They are published
    on behalf of Division F of the International Astronomical Union by the
          Minor Planet Center, Smithsonian Astrophysical Observatory,
                          Cambridge, MA 02138, U.S.A.
			  
             Prepared using the Tamkin Foundation Computer Network
                              MPC at CFA.HARVARD.EDU
            URL https://www.minorplanetcenter.net/    ISSN 1523-6714
                                    2023 VT7                                    
Observations:
     K23V07T  C2023 11 11.33143 05 05 17.37 +61 51 50.4                VEV220703
     K23V07T  C2023 11 11.34367 05 05 26.00 +61 49 47.7          20.0 GVEV220703
     K23V07T*1C2023 11 12.24910705 17 26.754+59 01 49.15         19.80GVEV220G96
     K23V07T 1C2023 11 12.25439405 17 30.455+59 00 48.13               VEV220G96
     K23V07T 1C2023 11 12.25966705 17 34.202+58 59 46.50         19.29GVEV220G96
     K23V07T 1C2023 11 12.26493305 17 37.846+58 58 45.77         19.25GVEV220G96
     K23V07T KB2023 11 12.28215 05 17 45.74 +58 55 23.5          19.1 GVEV220734
     K23V07T KB2023 11 12.28929 05 17 50.63 +58 53 58.6          19.3 GVEV220734
     K23V07T KB2023 11 12.29115 05 17 51.82 +58 53 36.4          19.2 GXEV220H36
     K23V07T KB2023 11 12.29623 05 17 55.41 +58 52 35.6          18.9 GVEV220734
     K23V07T KB2023 11 12.30003 05 17 57.91 +58 51 49.5          19.2 GXEV220H36
     K23V07T KB2023 11 12.30448 05 18 00.89 +58 50 57.1          19.3 GXEV220H36
     K23V07T mC2023 11 12.37741605 18 54.200+58 36 20.20         19.60GVEV220I52
     K23V07T mC2023 11 12.37758705 18 54.270+58 36 17.30         20.16GVEV220I52
     K23V07T KC2023 11 12.77429 05 24 07.14 +57 09 25.7          19.4 VqEV220L04
     K23V07T KC2023 11 12.78052 05 24 11.80 +57 08 06.0          19.6 VqEV220L04
     K23V07T KC2023 11 12.78423 05 24 14.59 +57 07 18.2          19.6 VqEV220L04
     K23V07T KC2023 11 12.85152 05 25 04.84 +56 52 29.9                VEV220587
     K23V07T KC2023 11 12.85224 05 25 05.33 +56 52 20.3          19.7 GVEV220587
     K23V07T KC2023 11 12.85439 05 25 06.88 +56 51 52.9                VEV220587
Observer details:
587 Sormano.  Observers A. Fumagalli, A. Testa.  Measurer A. Testa.  0.5-m
    f/6.8 reflector + CCD.
703 Catalina Sky Survey.  Observer R. A. Kowalski.  Measurers B. Gray, D.
    Rankin, F. C. Shelly.  0.68-m Schmidt + 10K CCD.
734 Farpoint Observatory, Eskridge.  Observers D. Cromer, G. Hug, D. Goodin,
    R. Valentine.  Measurer D. Cromer.  0.69-m f/3.54 reflector + CMO.
G96 Mt. Lemmon Survey.  Observer J. B. Fazekas.  Measurers E. C. Beshore, D.
    Fay, J. B. Fazekas, D. C. Fuls, A. R. Gibbs, A. D. Grauer, H. Groeller, J.
    K. Hogan, R. A. Kowalski, S. M. Larson, G. J. Leonard, D. Rankin, R. L.
    Seaman, F. C. Shelly, K. W. Wierzchos.  1.5-m reflector + 10K CCD.
H36 Sandlot Observatory, Scranton.  Observer G. Hug.  0.56-m f/4.8 reflector +
    CMO.
I52 Steward Observatory, Mt. Lemmon Station.  Observer J. K. Hogan.  Measurers
    E. C. Beshore, D. Fay, J. B. Fazekas, D. C. Fuls, A. R. Gibbs, A. D.
    Grauer, H. Groeller, J. K. Hogan, R. A. Kowalski, S. M. Larson, G. J.
    Leonard, D. Rankin, R. L. Seaman, F. C. Shelly, K. W. Wierzchos.  1.0-m
    prime focus + CCD.
L04 ROASTERR-1 Observatory, Cluj-Napoca.  Observer L. Hudin.  0.3-m f/5
    reflector + CCD.
Orbital elements:
2023 VT7                                                 Earth MOID = 0.0290 AU
Epoch 2023 Sept. 13.0 TT = JDT 2460200.5                MPC                     
M 298.80864              (2000.0)            P               Q                  
n   0.65729241     Peri.  209.15961     +0.09020878     -0.96207593             
a   1.3100774      Node   236.80144     +0.96295882     +0.15021231             
e   0.2413048      Incl.   17.91761     +0.25411155     -0.22769753             
P   1.50           H   24.05          G   0.15           U   8                  
Residuals in seconds of arc
231111 703  0.1-  0.3+    231112 734  0.1-  0.1-    231112 L04  0.3-  0.4+
231111 703  0.1+  0.2-    231112 H36  0.2-  0.4-    231112 L04  0.2-  0.3+
231112 G96  0.1-  0.3-    231112 734  0.3+  0.0     231112 L04  0.1+  0.0
231112 G96  0.2-  0.1-    231112 H36  0.1+  0.9-    231112 587  0.4+  0.5-
231112 G96  0.1+  0.5-    231112 H36  0.2-  0.2+    231112 587  0.1+  0.8-
231112 G96  0.2-  0.0     231112 I52  0.3+  0.9+    231112 587  0.0   0.3-
231112 734  0.2-  0.4-    231112 I52  0.0   0.1+
Ephemeris:
2023 VT7                 a,e,i = 1.31, 0.24, 18                  q = 0.9939
Date    TT    R. A. (2000) Decl.     Delta      r    Elong.  Phase     V
2023 10 13    00 45 56.3 +72 14 19   0.2335  1.1173   115.1    54.0    23.1
...
2023 10 28    02 00 38.2 +74 36 01   0.1451  1.0701   118.2    54.9    22.0
...
2023 11 05    03 35 03.1 +72 04 11   0.09862 1.0483   122.7    52.7    21.1
...
2023 11 11    05 00 44.1 +62 45 13   0.06604 1.0340   130.0    47.2    20.0
2023 11 12    05 14 00.7 +59 50 26   0.06110 1.0318   131.8    45.7    19.8
2023 11 13    05 26 42.3 +56 19 24   0.05642 1.0296   133.7    44.0    19.6
...
2023 11 19    06 28 44.3 +17 34 54   0.03858 1.0178   138.8    39.7    18.6
...
2023 11 27    07 19 09.7 -36 37 33   0.05874 1.0056   106.9    69.9    20.4
...
2023 12 12    08 03 45.4 -60 07 23   0.1375  0.9941    89.9    82.1    22.6
A. U. Tomatic                (C) Copyright 2023 MPC           M.P.E.C. 2023-V220
    
    
More information about the Iaude
mailing list